[[{"header":{"parameterUnit":"m.s-1","parameterCategory":1,"la1":30.2991,"la2":30.254,"lo1":-89.0895,"lo2":-89.0444,"dy":0.0017,"dx":0.0017,"nx":28,"ny":28,"refTime":"2024-12-14T09:00:00:Z","depth":0,"parameterNumber":2,"parameterNumberName":"U-component_of_WINDS"},"data":[0,0,0,0,0,0,0,0,0,0,0,0,0,0,0,0,0,0,0,0,0,0,0,0,0,0,0,0,0,0,0,0,0,0,0,0,0,0,0,0,0,0,0,0,0,0,0,0,0,0,0,0,0,0,0,0,0,0,-7.3452,-7.3452,0,-7.3449,-7.3449,-7.3449,-7.3268,-7.3263,-7.3258,-7.3254,-7.3252,-7.3256,-7.326,0,0,0,0,0,0,0,0,0,0,0,0,0,-7.3301,-7.3305,-7.3452,-7.3452,-7.3452,-7.3449,-7.3449,-7.3449,-7.3269,-7.3263,-7.3257,-7.3252,-7.325,-7.3255,-7.326,0,0,0,0,0,0,0,0,0,0,0,0,0,-7.334,-7.3306,-7.3452,-7.3361,-7.3353,-7.3449,-7.3449,-7.3449,-7.327,-7.3263,-7.3256,-7.3249,-7.3248,-7.3255,-7.3261,-7.3443,0,0,-7.3281,-7.3284,0,0,0,0,0,0,0,0,-7.3338,-7.3345,-7.3375,-7.3368,-7.3359,-7.3351,-7.3395,-7.3447,-7.3272,-7.3302,-7.3254,-7.3245,-7.3291,-7.3293,-7.3308,-7.3443,-7.3443,-7.3282,-7.3286,-7.3288,-7.329,0,0,0,0,0,0,0,-7.3335,-7.3344,-7.3451,-7.3375,-7.3366,-7.3321,-7.3319,-7.3404,-7.3336,-7.3298,-7.3285,-7.3287,-7.3285,-7.3302,-7.3307,-7.3443,-7.3281,-7.3287,-7.3291,-7.3294,-7.3727,-7.3734,0,0,0,0,0,0,-7.3345,-7.3343,-7.3451,-7.3451,-7.3331,-7.333,-7.3327,-7.3361,-7.3334,-7.3324,-7.3293,-7.3279,-7.3295,-7.3299,-7.3306,-7.3516,-7.3288,-7.3294,-7.3298,-7.3719,-7.3728,-7.3736,0,0,0,0,0,0,-7.3342,-7.3356,-7.3451,-7.3393,-7.3402,-7.334,-7.338,-7.3365,-7.3382,-7.3331,-7.3318,-7.3324,-7.3289,-7.3297,-7.341,-7.3514,-7.3297,-7.3303,-7.371,-7.3722,-7.3732,-7.394,0,0,0,0,0,0,-7.3339,-7.3356,-7.3425,-7.3396,-7.3406,-7.3556,-7.3386,-7.337,-7.3394,-7.3375,-7.3356,-7.3346,-7.3284,-7.3402,-7.3417,-7.3519,-7.3308,-7.37,-7.3715,-7.3729,-7.3923,-7.3957,-7.3986,0,0,0,0,0,-7.3334,-7.3484,-7.3429,-7.3443,-7.349,-7.3562,-7.3567,-7.3493,-7.3403,-7.3471,-7.3438,-7.3346,-7.3501,-7.3415,-7.343,-7.3536,-7.3694,-7.3711,-7.3728,-7.3909,-7.395,-7.3985,0,0,0,0,0,0,-7.3526,-7.3478,-7.3417,-7.3562,-7.3568,-7.3531,-7.3615,-7.3539,-7.357,-7.3551,-7.3459,-7.3456,-7.3584,-7.3571,-7.3477,-7.3711,-7.3581,-7.3602,-7.3714,-7.3752,-7.3783,-7.3782,-7.3314,0,0,0,0,0,-7.3585,-7.3648,-7.3602,-7.3735,-7.3741,-7.3678,-7.3707,-7.3649,-7.3651,-7.3652,-7.3627,-7.3633,-7.3682,-7.3717,-7.3759,-7.3921,-7.3914,-7.4002,-7.4033,-7.4059,-7.4077,-7.4161,-7.4199,-7.3792,-7.3792,-7.3792,0,0,-7.3708,-7.369,-7.3735,-7.3773,-7.377,-7.3837,-7.3681,-7.3758,-7.3806,-7.3664,-7.3769,-7.3752,-7.3751,-7.389,-7.395,-7.3883,-7.4188,-7.408,-7.4101,-7.4106,-7.4183,-7.4221,-7.4255,-7.3804,-7.3802,-7.38,0,0,-7.3965,-7.3959,-7.4067,-7.4068,-7.4066,-7.4023,-7.405,-7.4026,-7.4008,-7.4112,-7.4007,-7.4063,-7.4151,-7.4154,-7.4168,-7.4428,-7.4345,-7.4445,-7.4607,-7.4689,-7.4721,-7.4749,-7.4841,-7.4875,-7.4464,-7.4465,-7.4465,0,-7.4118,-7.4214,-7.4133,-7.4217,-7.4236,-7.4111,-7.422,-7.4225,-7.4238,-7.4254,-7.418,-7.4286,-7.4278,-7.4415,-7.4478,-7.4494,-7.4521,-7.4446,-7.4723,-7.4751,-7.4775,-7.4861,-7.4896,-7.4477,-7.4476,-7.4474,-7.4473,0,-7.4401,-7.447,-7.4558,-7.4572,-7.4602,-7.4699,-7.4632,-7.4672,-7.4613,-7.4579,-7.4686,-7.4672,-7.4709,-7.4738,-7.4681,-7.4867,-7.4826,-7.474,-7.4607,-7.4828,-7.4907,-7.4939,-7.4494,-7.449,-7.4486,-7.4483,0,0,-7.4778,-7.4747,-7.4781,-7.4785,-7.4775,-7.4826,-7.4917,-7.4953,-7.4989,-7.5002,-7.5075,-7.5153,-7.5073,-7.5088,-7.5031,-7.5104,-7.531,-7.5008,-7.5006,-7.5063,-7.5513,-7.5576,-7.5616,-7.5255,-7.5261,-7.5266,-7.5512,0,-7.5025,-7.5178,-7.5108,-7.5269,-7.533,-7.5213,-7.5292,-7.5294,-7.5265,-7.5313,-7.528,-7.5336,-7.5227,-7.5235,-7.5302,-7.5271,-7.5398,-7.5252,-7.5321,-7.5325,-7.5323,-7.5657,-7.5725,-7.5958,-7.5543,-7.5548,-7.5552,0,-7.5334,-7.536,-7.5527,-7.5504,-7.5527,-7.56,-7.5627,-7.5675,-7.5675,-7.5649,-7.5667,-7.5593,-7.568,-7.5551,-7.567,-7.5572,-7.5596,-7.5585,-7.5593,-7.5594,-7.545,-7.5667,-7.603,-7.6065,-7.56,-7.5596,-7.5593,0,-7.559,-7.5667,-7.5776,-7.5784,-7.5761,-7.5815,-7.5808,-7.5801,-7.5827,-7.5852,-7.5867,-7.5903,-7.5921,-7.595,-7.5888,-7.5799,-7.6015,-7.588,-7.5995,-7.5997,-7.6043,-7.6041,-7.6415,-7.6064,-7.6063,-7.6063,-7.6062,0,-7.5872,-7.5978,-7.589,-7.5957,-7.6073,-7.5992,-7.6109,-7.6089,-7.6084,-7.6145,-7.6047,-7.6107,-7.6021,-7.6073,-7.6025,-7.613,-7.614,-7.612,-7.6105,-7.6128,-7.613,-7.6141,-7.6122,-7.6072,-7.607,-7.6068,-7.6066,0,-7.6176,-7.6122,-7.6233,-7.6202,-7.6197,-7.6284,-7.6257,-7.6318,-7.6283,-7.6362,-7.6375,-7.632,-7.6375,-7.6316,-7.6368,-7.6335,-7.6476,-7.6439,-7.6476,-7.6465,-7.6582,-7.6571,-7.6974,-7.7022,-7.6643,-7.6646,-7.665,0,-7.6359,-7.6437,-7.6416,-7.645,-7.6449,-7.6505,-7.6531,-7.6455,-7.6487,-7.6493,-7.6554,-7.6601,-7.6634,-7.6728,-7.6692,-7.6731,-7.6692,-7.6831,-7.6697,-7.6717,-7.6692,-7.6687,-7.6694,-7.6858,-7.6862,-7.6866,-7.6869,0,-7.6688,-7.6657,-7.6699,-7.6732,-7.6766,-7.6788,-7.6803,-7.6836,-7.6758,-7.6798,-7.6853,-7.688,-7.6932,-7.698,-7.7008,-7.7,-7.6922,-7.6912,-7.694,-7.6962,-7.6979,-7.6969,-7.6548,-7.6902,-7.6899,-7.6896,-7.6894,-7.6893,-7.6935,-7.6999,-7.6994,-7.7044,-7.7047,-7.7063,-7.7119,-7.709,-7.7135,-7.7171,-7.7125,-7.7193,-7.7191,-7.7221,-7.7223,-7.7275,-7.7216,-7.7258,-7.7268,-7.7278,-7.7295,-7.6973,-7.7281,-7.728,-7.7279,-7.7278,-7.7277,0,-7.7257,-7.7249,-7.7295,-7.7319,-7.7358,-7.7282,-7.7294,-7.7332,-7.7393,-7.7398,-7.7433,-7.7497,-7.7543,-7.7512,-7.755,-7.7598,-7.7563,-7.7611,-7.7605,-7.7605,-7.7346,-7.7317,-7.7639,-7.7639,-7.7638,-7.7638,-7.7638,-7.7638,-7.743,-7.7534,-7.7503,-7.7608,-7.7598,-7.7664,-7.7678,-7.7692,-7.7696,-7.7771,-7.7809,-7.7788,-7.7779,-7.7816,-7.7855,-7.7844,-7.7862,-7.7923,-7.79,-7.7659,-7.7623,-7.7589,-7.7561,-7.7928,-7.7929,-7.8153,-7.8155,-7.8157]},{"header":{"parameterUnit":"m.s-1","parameterCategory":1,"la1":30.2991,"la2":30.254,"lo1":-89.0895,"lo2":-89.0444,"dy":0.0017,"dx":0.0017,"nx":28,"ny":28,"refTime":"2024-12-14T09:00:00:Z","depth":0,"parameterNumber":3,"parameterNumberName":"V-component_of_WINDS"},"data":[0,0,0,0,0,0,0,0,0,0,0,0,0,0,0,0,0,0,0,0,0,0,0,0,0,0,0,0,0,0,0,0,0,0,0,0,0,0,0,0,0,0,0,0,0,0,0,0,0,0,0,0,0,0,0,0,0,0,-0.3892,-0.3892,0,-0.3918,-0.3918,-0.3919,-0.3905,-0.3904,-0.3903,-0.3903,-0.3931,-0.3933,-0.3934,0,0,0,0,0,0,0,0,0,0,0,0,0,-0.3831,-0.3832,-0.3892,-0.3892,-0.3893,-0.3918,-0.3918,-0.3919,-0.3905,-0.3904,-0.3903,-0.3902,-0.3931,-0.3933,-0.3934,0,0,0,0,0,0,0,0,0,0,0,0,0,-0.3857,-0.3832,-0.3892,-0.3889,-0.3889,-0.3918,-0.3918,-0.3919,-0.3905,-0.3904,-0.3903,-0.3902,-0.393,-0.3932,-0.3935,-0.3969,0,0,-0.3941,-0.3942,0,0,0,0,0,0,0,0,-0.3856,-0.386,-0.3889,-0.3889,-0.3889,-0.3907,-0.3907,-0.3936,-0.3905,-0.3899,-0.3903,-0.3902,-0.3924,-0.3927,-0.3934,-0.397,-0.3971,-0.3941,-0.3943,-0.3943,-0.3944,0,0,0,0,0,0,0,-0.3854,-0.3858,-0.3902,-0.3889,-0.389,-0.3886,-0.3889,-0.3913,-0.3917,-0.39,-0.3899,-0.3902,-0.3924,-0.3932,-0.3935,-0.3972,-0.3941,-0.3943,-0.3944,-0.3945,-0.4034,-0.4035,0,0,0,0,0,0,-0.3852,-0.3857,-0.3902,-0.3903,-0.3869,-0.3888,-0.3891,-0.3902,-0.3917,-0.3918,-0.3903,-0.3901,-0.3929,-0.3932,-0.3936,-0.3975,-0.3943,-0.3945,-0.3947,-0.4033,-0.4035,-0.4036,0,0,0,0,0,0,-0.3851,-0.3856,-0.3901,-0.388,-0.3885,-0.389,-0.3903,-0.3904,-0.3911,-0.3919,-0.392,-0.391,-0.3928,-0.3933,-0.396,-0.3976,-0.3946,-0.3948,-0.4032,-0.4034,-0.4035,-0.4055,0,0,0,0,0,0,-0.3849,-0.3856,-0.3869,-0.388,-0.3886,-0.3924,-0.3904,-0.3905,-0.3915,-0.3913,-0.3926,-0.3928,-0.3928,-0.3957,-0.3962,-0.3978,-0.395,-0.4031,-0.4033,-0.4035,-0.4053,-0.4057,-0.406,0,0,0,0,0,-0.3847,-0.3875,-0.387,-0.3875,-0.3903,-0.3925,-0.3929,-0.3928,-0.3916,-0.3929,-0.3934,-0.3927,-0.3973,-0.396,-0.3965,-0.3983,-0.403,-0.4032,-0.4035,-0.4051,-0.4056,-0.406,0,0,0,0,0,0,-0.3867,-0.3876,-0.3871,-0.3903,-0.3913,-0.3923,-0.394,-0.3934,-0.3949,-0.3946,-0.3945,-0.3948,-0.3976,-0.3982,-0.3967,-0.4015,-0.4,-0.4003,-0.401,-0.4015,-0.4019,-0.4017,-0.3952,0,0,0,0,0,-0.3875,-0.3892,-0.3899,-0.3927,-0.3932,-0.3935,-0.3945,-0.3943,-0.3954,-0.3959,-0.3965,-0.3977,-0.3993,-0.4005,-0.4021,-0.4053,-0.4055,-0.4068,-0.4072,-0.4075,-0.4078,-0.4094,-0.4099,-0.4044,-0.4044,-0.4044,0,0,-0.3892,-0.3899,-0.391,-0.3931,-0.3939,-0.3956,-0.3939,-0.3959,-0.3972,-0.3962,-0.3987,-0.3992,-0.4005,-0.4034,-0.4048,-0.404,-0.4093,-0.4078,-0.408,-0.4082,-0.4097,-0.4102,-0.4106,-0.4046,-0.4045,-0.4045,0,0,-0.3931,-0.3939,-0.3961,-0.3969,-0.398,-0.3981,-0.3987,-0.3997,-0.3999,-0.4025,-0.4017,-0.4032,-0.4062,-0.407,-0.4078,-0.4118,-0.4112,-0.4123,-0.4143,-0.4159,-0.4163,-0.4167,-0.4179,-0.4184,-0.4126,-0.4127,-0.4127,0,-0.3951,-0.3977,-0.3974,-0.3994,-0.4002,-0.3992,-0.4015,-0.4023,-0.4039,-0.4045,-0.4036,-0.4071,-0.4079,-0.4109,-0.4118,-0.4126,-0.4131,-0.4122,-0.4162,-0.4166,-0.417,-0.4182,-0.4187,-0.4128,-0.4128,-0.4128,-0.4127,0,-0.4,-0.4017,-0.4034,-0.4048,-0.4059,-0.408,-0.408,-0.4091,-0.4088,-0.409,-0.4115,-0.4123,-0.414,-0.4147,-0.4145,-0.4176,-0.4171,-0.4162,-0.4147,-0.4176,-0.4187,-0.4192,-0.413,-0.4129,-0.4129,-0.4128,0,0,-0.4054,-0.4064,-0.407,-0.4075,-0.4086,-0.41,-0.412,-0.4135,-0.4143,-0.4155,-0.4171,-0.4194,-0.4185,-0.4195,-0.4193,-0.4207,-0.4235,-0.4196,-0.4196,-0.4202,-0.4269,-0.4274,-0.428,-0.4231,-0.4232,-0.4233,-0.4267,0,-0.4093,-0.4127,-0.4123,-0.4156,-0.4171,-0.4161,-0.4178,-0.4186,-0.4188,-0.4201,-0.4204,-0.422,-0.4208,-0.4213,-0.4226,-0.4229,-0.4248,-0.4227,-0.4245,-0.4246,-0.4242,-0.4286,-0.4293,-0.4325,-0.4272,-0.4272,-0.4273,0,-0.4143,-0.4154,-0.4187,-0.4193,-0.4199,-0.4215,-0.4227,-0.424,-0.4248,-0.4249,-0.4257,-0.4253,-0.4272,-0.4256,-0.4282,-0.4267,-0.4274,-0.4277,-0.4278,-0.4279,-0.4261,-0.4288,-0.4335,-0.434,-0.428,-0.428,-0.4279,0,-0.4178,-0.4201,-0.4223,-0.4228,-0.4236,-0.4246,-0.425,-0.4257,-0.4266,-0.4276,-0.4281,-0.4295,-0.4302,-0.4312,-0.4311,-0.4299,-0.4337,-0.4321,-0.4337,-0.4337,-0.4345,-0.4345,-0.4394,-0.4351,-0.4351,-0.4351,-0.4351,0,-0.4221,-0.4242,-0.4238,-0.4251,-0.4273,-0.4269,-0.4291,-0.4294,-0.43,-0.4313,-0.4306,-0.4319,-0.4316,-0.4329,-0.4328,-0.4349,-0.4353,-0.4353,-0.4352,-0.4353,-0.4353,-0.4358,-0.4355,-0.4352,-0.4352,-0.4352,-0.4352,0,-0.4263,-0.4262,-0.4285,-0.4289,-0.4291,-0.4307,-0.4311,-0.4323,-0.4323,-0.434,-0.4344,-0.4345,-0.436,-0.4359,-0.4376,-0.4375,-0.44,-0.4398,-0.4397,-0.4396,-0.4412,-0.441,-0.4465,-0.4472,-0.4426,-0.4426,-0.4427,0,-0.4291,-0.4306,-0.4311,-0.4319,-0.4323,-0.4336,-0.4344,-0.434,-0.4348,-0.4357,-0.4369,-0.4382,-0.4392,-0.4416,-0.4418,-0.443,-0.4427,-0.4446,-0.4429,-0.4429,-0.4426,-0.4425,-0.4426,-0.4449,-0.445,-0.445,-0.445,0,-0.434,-0.4337,-0.4348,-0.4358,-0.4367,-0.4376,-0.4383,-0.439,-0.4387,-0.4396,-0.441,-0.4418,-0.4434,-0.4447,-0.4458,-0.4462,-0.4455,-0.4455,-0.4459,-0.446,-0.4459,-0.4458,-0.4405,-0.4454,-0.4454,-0.4454,-0.4453,-0.4453,-0.4375,-0.4386,-0.4391,-0.4403,-0.4408,-0.4414,-0.4425,-0.4426,-0.4437,-0.4449,-0.4446,-0.4461,-0.4467,-0.4481,-0.4486,-0.4498,-0.4491,-0.4497,-0.4499,-0.45,-0.4501,-0.4457,-0.45,-0.45,-0.45,-0.45,-0.4499,0,-0.4421,-0.4423,-0.4434,-0.4443,-0.4452,-0.4444,-0.4451,-0.4459,-0.4472,-0.4478,-0.4488,-0.4503,-0.4514,-0.4517,-0.4528,-0.4537,-0.4534,-0.454,-0.4539,-0.4539,-0.4507,-0.4502,-0.4542,-0.4542,-0.4542,-0.4542,-0.4542,-0.4542,-0.4447,-0.4466,-0.4464,-0.4484,-0.4486,-0.45,-0.4504,-0.451,-0.4514,-0.4531,-0.454,-0.4541,-0.4545,-0.4556,-0.4566,-0.4566,-0.457,-0.4577,-0.4576,-0.4546,-0.4542,-0.4538,-0.4533,-0.4578,-0.4578,-0.4607,-0.4607,-0.4608]}]]